Location: St Paul
(33.9360°N, 83.4200°W)
Time: 17:16:48
(UTC-04:00)

METEOR-M - Pass Details

Date: 20 March 2019
Orbit: 816 x 820 km, 98.4° (Epoch: 17 April)

Event Time Altitude Azimuth Distance (km) Brightness Sun altitude
Rises 06:17:38 0° 32° (NNE) 3,346 8.0 -17.3°
Reaches altitude 10° 06:20:41 10° 50° (NE) 2,410 7.5 -16.7°
Maximum altitude 06:24:23 19° 94° (E) 1,855 7.0 -16.0°
Drops below altitude 10° 06:28:04 10° 138° (SE) 2,401 7.0 -15.2°
Sets 06:31:05 0° 156° (SSE) 3,329 7.5 -14.6°
